Vorticity
19 22 16 11 36 26 20 23 17 12 17 10 13 32 23 24 10 17 0 8 11 -9 18 -3 -3 18 19 16 14 6 13 20 9 15 5 18 15 5 4 6 10 9 4 6 7 3 5 9 9 13 13 10 8 17
21 12 6 33 7 3 7 4 14 9 16 14 25 43 -8 13 8 25 -22 -3 1 15 5 7 -12 2 16 16 30 12 5 5 14 12 -11 19 10 7 6 5 8 7 6 5 3 9 5 10 11 11 9 15 22 18
12 15 22 7 9 -0 5 16 17 27 12 5 41 29 20 9 -8 6 1 10 11 -2 -7 23 -4 11 2 4 -2 1 -26 10 12 -6 4 9 13 9 8 9 6 5 4 8 9 9 10 15 10 16 19 15 14 14
16 21 23 -3 10 -7 8 34 6 4 15 35 53 2 19 8 -1 -5 22 10 0 -5 2 5 18 14 1 -0 -14 12 9 13 -11 15 4 8 6 15 7 2 6 5 6 7 13 10 13 16 19 14 14 14 13 12
18 12 25 2 14 1 18 9 14 44 36 38 17 14 -22 5 -4 8 -8 16 19 4 -7 7 -16 10 -16 3 22 8 -1 11 6 17 19 13 14 10 6 5 4 8 11 15 11 14 17 11 12 14 12 11 12 11
14 34 9 5 -5 8 -1 22 44 16 13 24 25 -2 59 5 -4 8 -27 -21 3 2 -7 -4 5 13 1 12 19 8 12 13 19 9 15 14 5 5 5 7 13 12 10 11 13 14 11 9 9 8 7 8 9 11
20 11 5 8 5 16 21 33 18 -14 44 7 -5 22 31 -31 14 -3 1 12 23 33 16 32 26 24 24 24 38 19 19 17 13 13 4 4 5 7 13 13 13 16 17 12 11 11 12 10 10 10 9 9 9 9
12 10 8 5 8 18 39 15 31 -36 26 26 6 6 20 22 20 6 10 -2 7 12 11 8 11 11 -4 4 -0 22 16 9 2 3 7 7 11 9 12 13 13 10 9 11 12 10 8 7 7 7 9 9 9 12
17 18 7 14 23 38 19 35 -17 26 10 7 16 5 -4 7 12 -16 -8 6 -0 -7 6 17 21 22 9 21 18 12 6 7 7 6 10 13 4 14 12 10 10 14 12 7 7 7 7 9 10 8 7 7 12 17
23 25 23 27 29 32 9 25 28 1 26 17 15 1 47 24 -60 1 -4 12 14 22 16 15 28 35 18 6 4 6 6 5 10 11 7 14 13 9 11 15 12 7 7 8 9 10 9 10 9 8 10 15 19 19
33 13 20 24 48 25 2 17 17 2 0 10 -4 -4 6 6 15 6 7 6 8 29 18 6 7 1 5 9 12 12 7 8 9 8 13 11 11 15 11 7 7 8 8 7 7 8 6 7 8 9 16 21 21 22
14 28 45 23 16 8 6 14 11 5 3 8 16 2 15 25 24 21 29 24 12 9 19 16 13 12 6 8 10 8 7 12 12 15 13 16 11 6 7 7 7 9 7 6 5 5 5 7 9 16 21 23 21 19
32 21 10 37 35 21 14 -8 -5 14 -5 -8 11 21 18 13 12 10 10 14 9 8 3 5 7 8 8 6 9 16 14 14 17 15 10 6 4 8 11 9 8 6 4 3 5 5 7 9 13 21 23 24 27 31
19 18 11 1 21 15 -20 -3 19 13 -4 31 22 17 4 7 13 12 12 7 6 8 7 9 8 8 14 14 11 16 17 16 8 4 5 11 11 10 9 6 4 3 3 4 5 7 9 12 19 20 25 30 29 21
32 24 20 8 -14 7 2 24 22 17 15 1 5 3 10 3 1 3 9 11 11 10 8 9 12 11 13 18 22 12 4 4 8 13 10 12 9 7 6 6 4 4 4 4 6 9 11 19 21 20 30 29 24 25
17 28 7 32 19 -9 36 1 -5 -0 5 7 -9 -4 7 9 13 12 7 7 8 12 14 13 12 22 18 7 4 7 10 11 7 8 10 7 7 6 6 5 6 5 5 6 7 11 16 23 19 26 32 27 26 25
11 18 20 -18 7 24 -4 -10 -13 -9 6 -2 -2 8 6 9 3 4 12 10 10 13 19 25 12 2 7 9 11 7 10 8 6 9 7 7 6 5 5 6 7 6 6 6 9 13 22 21 21 29 30 25 24 22
18 17 25 16 1 -2 5 2 -6 10 9 5 6 7 5 9 13 12 16 23 26 16 4 5 9 9 9 7 6 4 6 6 9 6 6 4 5 5 7 8 9 7 6 7 11 17 24 16 15 27 31 23 21 19
-4 -4 5 12 9 12 13 8 9 -2 9 7 10 12 10 11 21 27 18 8 4 10 13 7 5 4 6 5 5 5 5 6 6 5 5 5 6 7 7 9 10 7 6 7 12 21 22 13 8 14 28 25 19 17
13 11 4 9 5 10 7 9 5 13 15 10 10 17 24 16 8 6 8 9 7 7 5 2 4 5 5 5 4 5 6 6 6 6 6 8 8 8 8 8 11 8 6 8 13 21 22 14 11 8 14 22 23 18
7 5 7 10 7 5 10 16 13 8 14 26 21 8 3 8 11 6 6 1 2 4 4 6 5 4 5 6 6 6 6 6 5 7 6 8 8 10 10 12 11 7 6 9 13 21 22 16 11 9 9 14 21 20
5 4 7 11 13 11 11 20 19 16 7 6 7 11 9 8 8 5 3 3 3 6 6 5 4 5 5 7 7 7 6 7 8 8 9 9 9 10 11 12 9 6 6 8 12 18 24 16 12 7 6 9 13 20
12 12 11 14 18 19 17 6 6 7 9 8 8 9 7 4 2 5 5 6 4 4 4 4 5 6 6 5 7 7 7 8 9 10 10 9 9 11 11 11 10 7 6 8 11 15 24 22 13 9 6 6 7 10
17 16 14 11 7 7 5 9 8 8 8 5 5 4 3 5 3 4 4 5 4 4 5 6 6 7 7 7 7 8 9 10 9 10 10 9 9 12 10 10 11 8 7 7 10 11 17 23 22 13 10 8 7 6
7 8 6 8 6 7 7 8 7 5 5 3 4 4 5 5 5 6 5 5 6 6 7 6 6 6 8 9 9 9 9 10 11 12 11 10 10 12 9 9 13 8 6 7 8 9 11 17 22 23 15 9 8 8
10 9 10 7 11 8 6 5 4 4 5 5 5 5 6 6 6 5 6 6 5 5 5 5 5 6 8 9 9 10 11 13 12 12 10 8 11 12 10 9 15 9 7 6 7 9 9 10 16 22 23 17 10 8
11 9 8 7 6 5 6 5 5 5 5 5 5 7 6 6 7 5 6 6 7 7 7 8 9 9 10 11 10 10 12 11 13 12 10 8 13 11 9 8 16 10 7 6 7 6 8 8 9 14 21 24 20 13
6 5 6 6 5 5 5 5 5 6 7 6 7 6 6 5 3 4 6 6 7 9 9 10 9 12 10 13 12 11 12 12 14 12 7 11 14 12 5 11 16 12 9 7 5 6 7 7 8 8 12 19 23 23
8 9 8 8 8 8 7 6 5 6 6 7 6 5 6 9 9 9 9 11 10 13 9 13 12 6 10 13 13 12 11 12 15 12 5 14 12 8 5 13 17 13 9 8 7 5 6 7 7 7 8 10 15 20
7 7 6 6 5 6 5 6 7 7 5 4 9 11 12 16 16 14 12 13 13 16 18 6 2 10 11 13 10 12 12 15 15 8 10 14 11 2 4 15 17 14 11 8 8 7 5 4 6 7 7 7 7 11
4 4 4 5 6 9 10 11 10 21 4 3 21 20 15 9 7 11 15 16 14 7 3 8 12 12 11 9 13 14 13 16 11 8 11 15 8 -1 7 17 17 14 12 10 7 8 7 5 5 4 6 7 7 7
6 10 11 13 12 9 5 7 3 3 39 14 12 10 2 6 11 9 5 7 10 11 10 9 10 11 12 15 13 14 16 12 7 9 14 9 6 4 15 16 16 13 13 11 9 8 7 7 6 6 5 5 6 7
12 10 9 1 14 16 17 30 28 1 2 19 11 -1 4 13 14 7 1 4 13 16 15 14 13 14 14 13 16 15 12 7 9 10 6 12 5 12 14 12 15 14 13 13 12 9 8 7 6 7 7 7 6 6
Height
5247 5261 5274 5288 5302 5316 5329 5342 5356 5371 5386 5402 5418 5433 5451 5472 5492 5512 5529 5542 5554 5564 5574 5583 5591 5597 5603 5610 5615 5620 5623 5626 5628 5628 5629 5628 5627 5627 5625 5625 5622 5622 5619 5615 5611 5605 5600 5595 5588 5583 5575 5565 5558 5552
5247 5261 5275 5289 5303 5316 5329 5341 5353 5367 5382 5397 5412 5428 5443 5469 5490 5505 5522 5535 5546 5557 5567 5576 5583 5590 5595 5600 5606 5611 5615 5618 5619 5620 5621 5619 5619 5617 5616 5614 5613 5611 5608 5604 5600 5593 5585 5579 5572 5566 5558 5551 5542 5535
5251 5263 5276 5290 5304 5315 5327 5338 5350 5363 5378 5392 5406 5424 5443 5465 5484 5503 5518 5531 5541 5552 5561 5570 5576 5583 5588 5593 5598 5602 5606 5610 5610 5611 5610 5609 5607 5607 5606 5604 5602 5600 5595 5591 5585 5579 5570 5565 5560 5551 5543 5537 5531 5525
5253 5265 5278 5292 5304 5315 5325 5335 5348 5362 5376 5389 5406 5424 5444 5464 5483 5501 5512 5525 5537 5547 5555 5561 5569 5575 5581 5585 5589 5594 5597 5600 5601 5600 5599 5599 5598 5598 5596 5594 5592 5587 5583 5578 5573 5565 5558 5551 5544 5537 5531 5524 5517 5511
5258 5269 5281 5293 5305 5315 5326 5337 5349 5362 5379 5391 5410 5429 5446 5462 5482 5498 5512 5523 5532 5544 5548 5555 5562 5568 5573 5577 5581 5584 5587 5588 5589 5589 5590 5590 5589 5588 5586 5582 5579 5575 5570 5565 5559 5552 5545 5538 5530 5524 5518 5512 5505 5499
5262 5272 5284 5295 5305 5317 5328 5334 5346 5358 5374 5395 5415 5432 5447 5467 5482 5496 5506 5516 5527 5536 5544 5549 5555 5559 5564 5568 5571 5574 5577 5578 5580 5581 5581 5581 5580 5579 5575 5571 5568 5563 5557 5550 5544 5538 5531 5524 5518 5512 5506 5500 5493 5486
5267 5277 5287 5297 5307 5318 5329 5336 5347 5361 5380 5403 5421 5436 5448 5464 5479 5491 5503 5517 5525 5533 5539 5543 5547 5552 5557 5559 5562 5566 5568 5571 5573 5573 5574 5573 5571 5568 5563 5560 5555 5549 5542 5537 5531 5526 5520 5512 5507 5500 5494 5487 5480 5473
5270 5279 5289 5298 5309 5319 5328 5339 5351 5365 5384 5404 5423 5439 5453 5468 5480 5491 5501 5511 5519 5527 5532 5536 5541 5546 5550 5554 5557 5558 5560 5563 5566 5565 5564 5563 5559 5555 5553 5546 5541 5537 5532 5526 5521 5515 5510 5504 5496 5489 5480 5473 5465 5456
5274 5283 5292 5301 5311 5319 5333 5344 5358 5373 5396 5412 5425 5441 5453 5465 5477 5487 5498 5507 5514 5522 5526 5531 5535 5539 5544 5547 5550 5553 5556 5557 5557 5556 5554 5551 5547 5545 5540 5536 5532 5528 5523 5517 5511 5505 5498 5491 5483 5474 5464 5454 5445 5436
5277 5284 5293 5302 5313 5323 5338 5352 5369 5386 5401 5416 5430 5440 5451 5465 5477 5488 5496 5501 5508 5514 5521 5526 5530 5535 5539 5541 5545 5548 5548 5548 5547 5546 5544 5542 5538 5535 5532 5528 5524 5518 5512 5506 5500 5494 5486 5477 5467 5457 5445 5433 5421 5411
5278 5288 5298 5307 5321 5336 5351 5364 5378 5393 5407 5423 5434 5446 5456 5465 5476 5484 5491 5497 5504 5510 5516 5520 5525 5530 5533 5538 5539 5541 5540 5540 5539 5539 5537 5534 5531 5528 5524 5520 5515 5510 5505 5499 5491 5481 5470 5460 5448 5436 5423 5409 5399 5389
5284 5293 5308 5320 5332 5344 5358 5372 5386 5402 5417 5432 5443 5451 5457 5465 5472 5481 5488 5496 5502 5508 5513 5518 5523 5526 5529 5531 5532 5533 5533 5533 5532 5530 5528 5526 5525 5521 5516 5512 5508 5503 5496 5487 5478 5467 5454 5440 5427 5413 5399 5387 5376 5365
5293 5307 5319 5333 5345 5359 5370 5382 5398 5410 5421 5430 5439 5448 5455 5463 5473 5482 5489 5495 5501 5506 5510 5514 5519 5522 5523 5525 5525 5526 5526 5526 5524 5523 5522 5520 5517 5515 5512 5506 5500 5492 5484 5475 5464 5451 5437 5423 5408 5395 5382 5369 5357 5346
5311 5321 5332 5344 5355 5367 5381 5395 5405 5415 5425 5433 5442 5451 5460 5469 5476 5482 5488 5494 5500 5504 5508 5511 5514 5516 5517 5518 5518 5520 5520 5520 5519 5517 5516 5514 5512 5508 5502 5495 5490 5481 5471 5459 5447 5435 5421 5406 5392 5378 5364 5350 5338 5329
5329 5339 5347 5359 5372 5384 5395 5403 5414 5422 5431 5440 5447 5455 5463 5469 5475 5481 5487 5492 5497 5501 5505 5507 5509 5510 5511 5512 5514 5515 5515 5514 5513 5513 5511 5507 5502 5496 5492 5485 5477 5467 5456 5446 5435 5421 5408 5394 5378 5364 5349 5336 5325 5316
5343 5353 5362 5371 5380 5390 5399 5408 5418 5429 5436 5443 5450 5457 5463 5471 5476 5481 5486 5490 5494 5496 5498 5501 5503 5504 5506 5508 5510 5510 5511 5511 5508 5505 5502 5497 5492 5487 5480 5472 5464 5456 5447 5436 5424 5410 5396 5381 5367 5352 5338 5326 5316 5307
5360 5367 5371 5381 5390 5397 5407 5418 5427 5433 5439 5446 5452 5458 5463 5468 5473 5477 5481 5484 5488 5491 5494 5497 5499 5502 5505 5506 5505 5506 5505 5503 5500 5497 5493 5488 5483 5477 5470 5463 5456 5448 5438 5427 5415 5401 5387 5373 5360 5345 5331 5320 5310 5301
5372 5379 5385 5390 5398 5406 5417 5424 5431 5436 5441 5446 5452 5458 5462 5467 5472 5476 5479 5483 5487 5489 5493 5497 5501 5502 5501 5500 5500 5500 5498 5496 5493 5489 5484 5479 5474 5468 5462 5456 5448 5439 5430 5418 5406 5394 5381 5369 5356 5340 5327 5316 5307 5298
5383 5388 5393 5401 5408 5415 5422 5427 5433 5437 5443 5449 5454 5459 5463 5468 5472 5476 5481 5483 5487 5492 5495 5495 5495 5497 5496 5495 5495 5494 5492 5488 5484 5480 5477 5472 5468 5462 5456 5449 5441 5432 5422 5411 5400 5387 5375 5364 5352 5339 5325 5314 5305 5297
5390 5396 5402 5407 5413 5417 5423 5427 5434 5441 5445 5450 5455 5460 5464 5469 5473 5476 5480 5486 5487 5489 5489 5490 5492 5492 5491 5491 5490 5488 5484 5481 5478 5474 5470 5466 5461 5456 5450 5442 5434 5425 5417 5406 5394 5381 5370 5360 5349 5337 5325 5314 5304 5296
5396 5402 5408 5413 5417 5423 5430 5433 5437 5442 5448 5452 5457 5463 5466 5468 5477 5480 5480 5480 5484 5486 5487 5488 5486 5486 5487 5485 5482 5479 5477 5474 5471 5468 5464 5460 5455 5449 5442 5435 5427 5419 5410 5399 5388 5377 5366 5356 5346 5336 5325 5314 5304 5294
5403 5408 5413 5418 5422 5427 5433 5439 5443 5447 5452 5455 5459 5462 5468 5473 5474 5476 5479 5481 5483 5484 5481 5480 5481 5482 5480 5478 5476 5473 5470 5467 5464 5461 5457 5453 5448 5442 5435 5429 5421 5413 5405 5395 5385 5374 5363 5354 5345 5335 5325 5315 5305 5295
5410 5415 5419 5422 5427 5431 5436 5439 5443 5448 5453 5456 5461 5467 5470 5471 5474 5478 5479 5479 5476 5475 5476 5477 5477 5475 5474 5472 5470 5467 5464 5461 5458 5454 5450 5446 5441 5436 5430 5423 5416 5409 5401 5392 5382 5372 5361 5351 5343 5334 5325 5316 5306 5296
5414 5418 5423 5428 5432 5437 5441 5446 5450 5454 5459 5463 5466 5467 5469 5470 5470 5469 5471 5471 5472 5472 5472 5472 5471 5470 5468 5466 5464 5461 5458 5455 5451 5448 5444 5440 5435 5429 5424 5418 5411 5405 5397 5389 5380 5371 5360 5350 5340 5332 5324 5315 5306 5297
5421 5425 5429 5432 5435 5439 5442 5446 5449 5452 5455 5457 5458 5460 5462 5463 5464 5465 5466 5467 5468 5468 5467 5466 5466 5464 5463 5460 5457 5454 5451 5448 5445 5442 5438 5434 5428 5423 5418 5413 5407 5401 5394 5387 5378 5369 5360 5350 5340 5330 5322 5314 5305 5296
5422 5426 5430 5432 5436 5440 5442 5446 5448 5451 5453 5455 5457 5458 5460 5461 5462 5462 5463 5463 5463 5462 5461 5460 5459 5458 5456 5453 5450 5447 5444 5442 5439 5435 5431 5427 5422 5417 5412 5407 5402 5396 5390 5384 5376 5368 5359 5350 5339 5329 5320 5311 5304 5296
5424 5428 5431 5434 5437 5440 5443 5445 5447 5450 5451 5453 5454 5455 5456 5457 5457 5458 5458 5458 5457 5456 5455 5454 5452 5450 5449 5446 5443 5441 5438 5435 5432 5428 5424 5421 5416 5412 5407 5402 5396 5392 5386 5380 5373 5366 5358 5349 5340 5330 5320 5311 5303 5295
5425 5428 5431 5435 5437 5439 5441 5443 5445 5447 5448 5449 5451 5451 5453 5453 5453 5453 5452 5451 5451 5449 5448 5446 5445 5443 5442 5439 5436 5433 5430 5427 5425 5422 5418 5415 5410 5405 5401 5396 5391 5386 5382 5376 5370 5363 5356 5348 5340 5331 5321 5312 5303 5295
5425 5427 5430 5432 5434 5436 5438 5440 5442 5443 5444 5445 5446 5447 5447 5446 5446 5446 5445 5445 5443 5442 5441 5439 5438 5436 5434 5431 5429 5425 5423 5420 5418 5415 5412 5407 5403 5400 5395 5390 5386 5381 5377 5372 5367 5361 5354 5347 5339 5331 5323 5314 5305 5296
5423 5425 5427 5429 5431 5433 5434 5435 5436 5437 5438 5439 5440 5440 5440 5440 5439 5439 5438 5437 5436 5435 5433 5432 5431 5429 5426 5423 5421 5418 5416 5413 5411 5408 5404 5401 5397 5393 5389 5384 5380 5376 5371 5367 5362 5357 5351 5345 5338 5331 5323 5316 5308 5300
5419 5421 5423 5424 5425 5427 5428 5429 5429 5430 5431 5432 5432 5433 5433 5432 5432 5431 5430 5430 5429 5428 5427 5425 5423 5420 5418 5415 5413 5411 5409 5406 5403 5400 5397 5394 5390 5386 5382 5378 5374 5370 5366 5362 5358 5353 5348 5342 5336 5330 5323 5317 5309 5302
5413 5414 5416 5417 5419 5420 5421 5422 5422 5423 5424 5424 5425 5425 5425 5425 5425 5424 5423 5423 5422 5420 5418 5416 5414 5412 5410 5408 5405 5403 5400 5398 5396 5393 5390 5387 5384 5380 5376 5372 5368 5364 5360 5356 5352 5348 5344 5339 5333 5328 5322 5316 5310 5303
5406 5408 5410 5411 5412 5413 5414 5414 5415 5417 5417 5417 5418 5418 5418 5417 5417 5416 5415 5414 5413 5411 5409 5407 5405 5403 5401 5399 5397 5395 5393 5390 5388 5385 5383 5379 5376 5373 5369 5365 5361 5357 5354 5350 5346 5343 5339 5334 5330 5325 5320 5314 5308 5302